Change the Weather History Date:

Friday, October 19, 2012

  Actual Average Record
Temperature  
Mean Temperature 70 °F 63 °F  
Max Temperature 85 °F 80 °F 90 °F (2003)
Min Temperature 54 °F 46 °F 32 °F (2013)
Degree Days  
Heating Degree Days 0 3  
Month to date heating degree days 14 27  
Since 1 July heating degree days 15 29  
Cooling Degree Days 5 1  
Month to date cooling degree days 59 53  
Year to date cooling degree days 2048 1804  
Growing Degree Days 19 (Base 50)    
Moisture  
Dew Point 41 °F    
Average Humidity 43    
Maximum Humidity 66    
Minimum Humidity 20    
Precipitation  
Precipitation 0.00 in 0.03 in 1.43 in (1972)
Month to date precipitation T 0.61  
Year to date precipitation 7.15 11.16  
Snow  
Snow 0.00 in - - ()
Month to date snowfall 0.0  
Snow Depth 0.00 in    
Sea Level Pressure  
Sea Level Pressure 29.89 in    
Wind  
Wind Speed 5 mph (North)    
Max Wind Speed 12 mph    
Max Gust Speed 13 mph    
Visibility 10 miles    
Events      
T = Trace of Precipitation, MM = Missing Value Source: NWS Daily Summary

Daily Weather History Graph

Daily Weather History Graph

Search for Another Location

Airport or City:

Trip Planner

Search our weather history database for the weather conditions in past years. The results will help you decide how hot, cold, wet, or windy it might be!

Date:

Astronomy

Oct. 19, 2012 Rise Set
Actual Time 6:24 AM MST 5:41 PM MST
Civil Twilight 6:00 AM MST 6:05 PM MST
Nautical Twilight 5:31 AM MST 6:34 PM MST
Astronomical Twilight 5:03 AM MST 7:02 PM MST
Moon 10:58 AM MST (10/19) 9:35 PM MST (10/19)
Length of Visible Light 12h 05m
Length of Day
11h 16m
Waxing Crescent, 24% of the Moon is Illuminated
Oct 19
Waxing Crescent
Oct 21
First Quarter
Oct 29
Full
Nov 6
Last Quarter
Nov 13
New

Hourly Weather History & Observations

Time (MST) Temp. Dew Point Humidity Pressure Visibility Wind Dir Wind Speed Gust Speed Precip Events Conditions
12:56 AM 62.1 °F 45.0 °F 53% 29.90 in 10.0 mi NW 8.1 mph - N/A   Clear
1:56 AM 63.0 °F 46.9 °F 56% 29.91 in 10.0 mi NW 9.2 mph - N/A   Clear
2:56 AM 59.0 °F 45.0 °F 60% 29.90 in 10.0 mi North 8.1 mph - N/A   Clear
3:56 AM 57.0 °F 43.0 °F 59% 29.90 in 10.0 mi North 8.1 mph - N/A   Clear
4:56 AM 54.0 °F 42.1 °F 64% 29.91 in 10.0 mi North 10.4 mph - N/A   Clear
5:56 AM 54.0 °F 42.1 °F 64% 29.93 in 10.0 mi North 9.2 mph - N/A   Clear
6:56 AM 55.9 °F 43.0 °F 62% 29.94 in 10.0 mi North 9.2 mph - N/A   Clear
7:56 AM 63.0 °F 45.0 °F 52% 29.96 in 10.0 mi North 6.9 mph - N/A   Clear
8:56 AM 68.0 °F 45.0 °F 43% 29.96 in 10.0 mi North 8.1 mph - N/A   Clear
9:56 AM 72.0 °F 43.0 °F 35% 29.94 in 10.0 mi NW 4.6 mph - N/A   Clear
10:56 AM 73.9 °F 42.1 °F 32% 29.92 in 10.0 mi South 3.5 mph - N/A   Clear
11:56 AM 77.0 °F 41.0 °F 28% 30.07 in 10.0 mi Variable 3.5 mph - N/A   Clear
12:56 PM 78.1 °F 41.0 °F 27% 29.86 in 10.0 mi Calm Calm - N/A   Clear
1:56 PM 82.4 °F 41.0 °F 23% 30.01 in 10.0 mi Calm Calm - N/A   Clear
2:56 PM 84.0 °F 41.0 °F 22% 29.81 in 10.0 mi Calm Calm - N/A   Clear
3:56 PM 84.0 °F 39.0 °F 20% 29.79 in 10.0 mi WNW 4.6 mph - N/A   Clear
4:56 PM 82.9 °F 39.9 °F 22% 29.79 in 10.0 mi Calm Calm - N/A   Clear
5:56 PM 78.1 °F 39.9 °F 25% 29.81 in 10.0 mi East 4.6 mph - N/A   Clear
6:56 PM 71.6 °F 37.4 °F 29% 29.98 in 10.0 mi East 6.9 mph - N/A   Clear
7:56 PM 71.1 °F 39.0 °F 31% 29.81 in 10.0 mi ENE 6.9 mph - N/A   Clear
8:56 PM 66.0 °F 37.9 °F 36% 29.82 in 10.0 mi SSW 3.5 mph - N/A   Clear
9:56 PM 66.9 °F 39.0 °F 36% 29.81 in 10.0 mi Calm Calm - N/A   Clear
10:56 PM 64.9 °F 37.9 °F 37% 29.81 in 10.0 mi Calm Calm - N/A   Clear
11:56 PM 68.0 °F 39.0 °F 35% 29.80 in 10.0 mi Calm Calm - N/A   Clear